NUSTAR

Last updated on Fri Sep 11 2026 00:03:31 GMT+0000 (Coordinated Universal Time)

1 38358U 12031A 26253.58336806 .00005047 00000+0 25306-3 0 9995 2 38358 6.0261 113.2174 0008957 298.4091 255.3868 15.09501622 1307
UTC large
Height (km)
Speed (km/s)
/
Latitude / Longitude
Inclination (degrees)
Orbital Period (minutes)
Azimuth
Elevation
Range (km)
Doppler Factor

Next 0 passes for location: London (51.5072 / 0.1276)

No passes found over London.
NUSTAR